Flag for U.S.A. Weather past 2 weeks in Terre Haute, Indiana, U.S.A.

Now
61 °F

Passing clouds.


Feels Like: 61 °F
Forecast: 58 / 64 °F
Wind: 8 mph from East

Location: Terre Haute International Airport - Hulman Field

Current Time: Apr 19, 2015 at 7:45:35 AM

Latest Report: Apr 19, 2015 at 6:53 AM


Visibility: 10 mi

Pressure: 29.76 "Hg

Humidity: 62%

Dew point: 48 °F

Location of Terre HauteLocation

Historic Weather in Terre Haute — Graph

°F

Terre Haute temperature yesterday

Maximum temperature yesterday: 76 °F (at 1:53 PM)
Minimum temperature yesterday: 50 °F (at 4:53 AM)
Average temperature yesterday: 64 °F

Past Weeks' High & Low Weather Summary

 TemperatureHumidityPressure
High77 °F (Apr 9, 3:53 PM)100% (Apr 7, 6:53 AM)30.39 "Hg (Apr 7, 6:53 AM)
Low32 °F (Apr 4, 6:53 AM)27% (Apr 5, 2:53 PM)29.64 "Hg (Apr 9, 10:53 PM)
Average58 °F67%30.06 "Hg
* Reported Apr 4 6:53 AM — Apr 19 6:53 AM, Terre Haute, Weather by CustomWeather, © 2015

Note: Actual official high and low records may vary slightly from our data, if they occured in-between our weather recording intervals... More about our weather records

Advertising

Terre Haute weather history for previous 24 hours

 ConditionsComfort  
Time TempWeatherWind HumidityBarometerVisibility
6:53 AM
Sun, Apr 19
61 °FPassing clouds.8 mph62%29.76 "Hg10 mi
5:53 AM62 °FMostly cloudy.8 mph62%29.78 "Hg10 mi
4:53 AM60 °FPassing clouds.7 mph65%29.80 "Hg10 mi
3:53 AM60 °FClear.6 mph65%29.82 "Hg10 mi
2:53 AM63 °FClear.7 mph58%29.84 "Hg10 mi
1:53 AM63 °FClear.6 mph58%29.87 "Hg10 mi
12:53 AM64 °FClear.8 mph56%29.88 "Hg10 mi
11:53 PM
Sat, Apr 18
60 °FClear.8 mph67%29.90 "Hg10 mi
10:53 PM61 °FClear.6 mph67%29.92 "Hg10 mi
9:53 PM65 °FClear.8 mph59%29.93 "Hg10 mi
8:53 PM65 °FSunny.7 mph59%29.93 "Hg10 mi
7:53 PM70 °FSunny.8 mph49%29.92 "Hg10 mi
6:53 PM73 °FSunny.10 mph44%29.93 "Hg10 mi
5:53 PM75 °FSunny.8 mph39%29.93 "Hg10 mi
4:53 PM75 °FSunny.6 mph37%29.95 "Hg10 mi
3:53 PM74 °FSunny.8 mph40%29.96 "Hg10 mi
2:53 PM75 °FSunny.9 mph39%29.99 "Hg10 mi
1:53 PM76 °FSunny.9 mph37%30.01 "Hg10 mi
12:53 PM75 °FSunny.5 mph39%30.03 "Hg10 mi
11:53 AM73 °FSunny.5 mph44%30.03 "Hg10 mi
10:53 AM68 °FSunny.3 mph55%30.03 "Hg10 mi
9:53 AM64 °FSunny.No wind65%30.03 "Hg10 mi
8:53 AM59 °FSunny.No wind78%30.04 "Hg10 mi
7:53 AM50 °FClear.No wind93%30.04 "Hg10 mi
Weather by CustomWeather, © 2015

See weather overviewHow to use our weather pages